Terminal Aerodrome Forecast
Issued by NWS

Home | Current Version | Previous Version | Graphics & Text | Print | Product List | Glossary On
Versions: 1 2 3 4 5 6 7 8 9 10 11 12 13 14 15 16
000
FTUS41 KCLE 260530
TAFFDY
TAF
KFDY 260530Z 2606/2706 17008KT P6SM VCSH OVC080
     FM260900 19008KT 6SM -SHRA OVC035
     FM261200 24012KT 5SM -SHRA OVC025
     FM261700 27012G20KT P6SM SCT025 OVC080
     FM262200 27008KT P6SM SCT100=

USA.gov is the U.S. government's official web portal to all federal, state and local government web resources and services.